Tracking 22455 objects as of 9-Mar-2021
HD Live streaming from Space Station
objects crossing your sky now

EKRAN 2 DEB

Track EKRAN 2 DEB now!


NORAD ID: 12996
Int'l Code: 1977-092J
Perigee: 35,827.0 km
Apogee: 35,899.0 km
Inclination: 9.1 °
Period: 1,439.6 minutes
Semi major axis: 42233 km
RCS: 0.3162 m2 (medium)
Launch date: September 20, 1977
Source: Commonwealth of Independent States (former USSR) (CIS)
Launch site: TYURATAM MISSILE AND SPACE COMPLEX (TTMTR)

Note: This is SATELLITE DEBRIS
aabbcc
Your satellite tracking list
Your tracking list is empty




NASA's NSSDC Master Catalog

Two Line Element Set (TLE):
1 12996U 77092J   21067.16299512 -.00000154  00000-0  00000-0 0  9994
2 12996   9.1160 300.0119 0008531 223.8840 146.6396  1.00025295 65239
Source of the keplerian elements: AFSPC